This is the latest recevied weather packets stored in our database for station/object HB9FHL-13. If no packets are shown the sender has not sent any weather packets the latest 10 day(s).
| Time | Temp. | Humidity | Pressure | Rain* | Wind** | Luminosity | Snow |
|---|---|---|---|---|---|---|---|
| 1788099222 | 25° C | - | 1017.6 hPa | 0 mm | - | - | - |
| 1788098924 | 25° C | - | 1014.2 hPa | 0 mm | - | - | - |
| 1788098921 | 25° C | - | 1014.2 hPa | 0 mm | - | - | - |
| 1788098325 | 23.89° C | - | 1018.4 hPa | 0 mm | - | - | - |
| 1788098320 | 23.89° C | - | 1018.4 hPa | 0 mm | - | - | - |
| 1788098023 | 23.33° C | - | 1014.5 hPa | 0 mm | - | - | - |
| 1788098020 | 23.33° C | - | 1014.5 hPa | 0 mm | - | - | - |
| 1788097725 | 24.44° C | - | 1015 hPa | 0 mm | - | - | - |
| 1788097719 | 24.44° C | - | 1015 hPa | 0 mm | - | - | - |
| 1788097484 | 23.89° C | - | 1015.9 hPa | 0 mm | - | - | - |
| 1788097421 | 23.89° C | - | 1015.9 hPa | 0 mm | - | - | - |
| 1788097418 | 23.89° C | - | 1015.9 hPa | 0 mm | - | - | - |
| 1788097117 | 23.89° C | - | 1020.7 hPa | 0 mm | - | - | - |
| 1788096817 | 23.89° C | - | 1016.8 hPa | 0 mm | - | - | - |
| 1788096520 | 23.89° C | - | 1016.2 hPa | 0 mm | - | - | - |
| 1788096516 | 23.89° C | - | 1016.2 hPa | 0 mm | - | - | - |
| 1788096216 | 23.89° C | - | 1016.7 hPa | 0 mm | - | - | - |
| 1788095920 | 23.89° C | - | 1014.5 hPa | 0 mm | - | - | - |
| 1788095914 | 23.89° C | - | 1014.5 hPa | 0 mm | - | - | - |
| 1788095618 | 22.78° C | - | 1013.9 hPa | 0 mm | - | - | - |
| 1788095614 | 22.78° C | - | 1013.9 hPa | 0 mm | - | - | - |
| 1788095317 | 23.89° C | - | 1011.8 hPa | 0 mm | - | - | - |
| 1788095313 | 23.89° C | - | 1011.8 hPa | 0 mm | - | - | - |
| 1788095016 | 23.89° C | - | 1021.2 hPa | 0 mm | - | - | - |
| 1788095013 | 23.89° C | - | 1021.2 hPa | 0 mm | - | - | - |
* Rain since midnight (hover to see other rain measurements)
** Current wind speed in m/s (hover to see current wind gust speed)